Home   Weather   Newcastle upon Tyne   Past weeks

Flag for United Kingdom Past Weather in Newcastle upon Tyne, England, United Kingdom — Yesterday and Last 2 Weeks

Now
54 °F

Passing clouds.


Feels Like: 53 °F
Forecast: 41 / 56 °F
Wind: 3 mph from North

Location: Newcastle

Current Time: Oct 1, 2016 at 11:36:00 AM

Latest Report: Oct 1, 2016 at 11:20 AM


Visibility: N/A

Pressure: 29.74 "Hg

Humidity: 82%

Dew Point: 48 °F

Location of Newcastle upon TyneLocation

Past Weather in Newcastle upon Tyne — Graph

°F

Newcastle upon Tyne Temperature Yesterday

Maximum temperature yesterday: 57 °F (at 12:20 PM)
Minimum temperature yesterday: 43 °F (at 10:20 PM)
Average temperature yesterday: 50 °F

High & Low Weather Summary for the Past Weeks

 TemperatureHumidityPressure
High68 °F (Sep 18, 2:20 PM)100% (Sep 16, 10:20 AM)30.21 "Hg (Sep 16, 10:20 AM)
Low39 °F (Oct 1, 1:20 AM)52% (Sep 22, 2:20 PM)29.62 "Hg (Sep 25, 5:20 AM)
Average55 °F84%29.96 "Hg
* Reported Sep 16 10:20 AM — Oct 1 10:20 AM, Newcastle upon Tyne, Weather by CustomWeather, © 2016

Note: Actual official high and low records may vary slightly from our data, if they occured in-between our weather recording intervals... More about our weather records

Advertising

Newcastle upon Tyne Weather History for the Previous 24 Hours

Scroll right to see more
 ConditionsComfort  
Time TempWeatherWind HumidityBarometerVisibility
10:20 AM
Sat, Oct 1
54 °FPassing clouds.2 mph77%29.74 "HgN/A
9:50 AM54 °FPassing clouds.1 mph77%29.74 "HgN/A
9:20 AM52 °FPassing clouds.No wind88%29.74 "HgN/A
8:50 AM48 °FPassing clouds.No wind94%29.71 "HgN/A
8:20 AM45 °FPassing clouds.No wind93%29.71 "HgN/A
7:50 AM41 °FPassing clouds.1 mph93%29.71 "HgN/A
7:20 AM41 °FPassing clouds.1 mph100%29.71 "HgN/A
6:50 AM41 °FPassing clouds.1 mph100%29.71 "HgN/A
6:20 AM41 °FPassing clouds.1 mph100%29.71 "HgN/A
5:50 AM41 °FPassing clouds.1 mph100%29.71 "HgN/A
4:50 AM41 °FPassing clouds.No wind100%29.71 "HgN/A
4:20 AM39 °FPassing clouds.No wind100%29.71 "HgN/A
3:50 AM39 °FPassing clouds.No wind100%29.71 "HgN/A
2:50 AM39 °FPassing clouds.1 mph100%29.71 "HgN/A
2:20 AM39 °FPassing clouds.1 mph100%29.74 "HgN/A
1:20 AM39 °FPassing clouds.1 mph100%29.74 "HgN/A
12:50 AM41 °FPassing clouds.1 mph100%29.74 "HgN/A
12:20 AM43 °FPassing clouds.No wind100%29.74 "HgN/A
11:50 PM
Fri, Sep 30
45 °FPassing clouds.No wind100%29.74 "HgN/A
11:20 PM43 °FPassing clouds.No wind100%29.74 "HgN/A
10:50 PM43 °FPassing clouds.1 mph100%29.74 "HgN/A
10:20 PM43 °FPassing clouds.1 mph100%29.74 "HgN/A
9:50 PM46 °FPassing clouds.1 mph93%29.77 "HgN/A
9:20 PM48 °FPassing clouds.2 mph87%29.77 "HgN/A
8:50 PM48 °FPassing clouds.5 mph87%29.74 "HgN/A
8:20 PM48 °FPassing clouds.5 mph87%29.74 "HgN/A
7:50 PM50 °FPassing clouds.6 mph82%29.74 "HgN/A
7:20 PM50 °FPassing clouds.5 mph82%29.74 "HgN/A
6:50 PM50 °FPassing clouds.3 mph82%29.74 "HgN/A
6:20 PM52 °FPassing clouds.7 mph77%29.74 "HgN/A
5:50 PM54 °FPassing clouds.9 mph72%29.74 "HgN/A
5:20 PM54 °FPassing clouds.13 mph77%29.71 "HgN/A
4:50 PM55 °FPassing clouds.10 mph67%29.71 "HgN/A
4:20 PM55 °FPassing clouds.13 mph72%29.71 "HgN/A
3:50 PM55 °FPassing clouds.15 mph72%29.71 "HgN/A
3:20 PM57 °FPassing clouds.16 mph67%29.71 "HgN/A
2:50 PM57 °FPassing clouds.16 mph63%29.71 "HgN/A
2:20 PM55 °FPassing clouds.16 mph67%29.71 "HgN/A
1:50 PM57 °FPassing clouds.16 mph72%29.71 "HgN/A
1:20 PM57 °FPassing clouds.15 mph72%29.71 "HgN/A
12:50 PM55 °FPassing clouds.18 mph72%29.71 "HgN/A
12:20 PM57 °FPassing clouds.13 mph67%29.71 "HgN/A
11:20 AM55 °FPassing clouds.13 mph77%29.71 "HgN/A
Weather by CustomWeather, © 2016

See weather overviewHow to use our weather pages